Volkel, Netherlands

11:18 PM CEST on April 30, 2017 (GMT +0200)
Volkel Air Base

Weather History for EHVK - July, 2013

Change the Weather History Date:

Friday, July 12, 2013

  Actual Average Record
Temperature  
Mean Temperature 55 °F -  
Max Temperature 67 °F 71 °F 82 °F (1999)
Min Temperature 43 °F 54 °F 42 °F (2000)
Degree Days  
Heating Degree Days 10    
Growing Degree Days 5 (Base 50)    
Moisture  
Dew Point 51 °F    
Average Humidity 76    
Maximum Humidity 100    
Minimum Humidity 52    
Precipitation  
Precipitation 0.00 in - - ()
Sea Level Pressure  
Sea Level Pressure 30.21 in    
Wind  
Wind Speed 4 mph ()    
Max Wind Speed 9 mph    
Max Gust Speed -    
Visibility 7.0 miles    
Events      
Averages and records for this station are not official NWS values.
T = Trace of Precipitation, MM = Missing Value Source: Averaged Metar Reports

Daily Weather History Graph

Daily Weather History Graph

Search for Another Location

Airport or City:

Trip Planner

Search our weather history database for the weather conditions in past years. The results will help you decide how hot, cold, wet, or windy it might be!

Date:

Astronomy

Jul. 12, 2013 Rise Set
Actual Time 5:33 AM CEST 9:51 PM CEST
Civil Twilight 4:47 AM CEST 10:36 PM CEST
Nautical Twilight 3:40 AM CEST 11:43 PM CEST
Astronomical Twilight 2:15 AM CEST 1:10 AM CEST
Moon 10:10 AM CEST (7/12) 11:14 PM CEST (7/12)
Length of Visible Light 17h 48m
Length of Day
16h 17m
Waxing Crescent, 15% of the Moon is Illuminated
Jul 12
Waxing Crescent
Jul 16
First Quarter
Jul 22
Full
Jul 29
Last Quarter
Aug 6
New

Hourly Weather History & Observations

Time (CEST) Temp. Windchill Dew Point Humidity Pressure Visibility Wind Dir Wind Speed Gust Speed Precip Events Conditions
12:00 AM 55 °F - 51 °F 82% 30.22 in 11 mi North 4.5 mph - -  
12:25 AM 55.4 °F - 51.8 °F 88% 30.21 in 6.2 mi North 5.8 mph - N/A   Unknown
12:55 AM 53.6 °F - 50.0 °F 88% 30.21 in 6.2 mi North 4.6 mph - N/A   Unknown
1:00 AM 54 °F - 50 °F 83% 30.23 in 9 mi North 4.5 mph - -  
1:25 AM 53.6 °F - 50.0 °F 88% 30.21 in 6.2 mi North 4.6 mph - N/A   Unknown
1:55 AM 51.8 °F - 50.0 °F 94% 30.21 in 6.2 mi NNE 4.6 mph - N/A   Unknown
2:00 AM 52 °F - 49 °F 85% 30.23 in 11 mi NNE 4.5 mph - -   Partly Cloudy
2:25 AM 51.8 °F - 48.2 °F 88% 30.21 in 6.2 mi NNE 3.5 mph - N/A   Unknown
2:55 AM 50.0 °F - 48.2 °F 94% 30.21 in 6.2 mi NNE 3.5 mph - N/A   Unknown
3:00 AM 51 °F - 49 °F 89% 30.23 in 9 mi North 2.2 mph - -  
3:25 AM 50.0 °F - 48.2 °F 94% 30.21 in 6.2 mi North 3.5 mph - N/A   Unknown
3:55 AM 48.2 °F - 46.4 °F 93% 30.21 in 6.2 mi NNE 1.2 mph - N/A   Unknown
4:00 AM 49 °F - 47 °F 92% 30.23 in 8 mi Calm Calm - -  
4:25 AM 46.4 °F 45.2 °F 44.6 °F 93% 30.21 in 6.2 mi North 3.5 mph - N/A   Unknown
4:42 AM 46.4 °F - 44.6 °F 93% 30.21 in 4.3 mi NNW 2.3 mph - N/A   Mist
4:46 AM 46.4 °F - 46.4 °F 100% 30.21 in 5.6 mi NNW 2.3 mph - N/A   Mist
4:55 AM 46.4 °F - 46.4 °F 100% 30.21 in 5.0 mi NNW 1.2 mph - N/A   Mist
5:00 AM 58 °F - 51 °F 71% 30.24 in 13 mi NNE 4.5 mph - -   Overcast
5:05 AM 46.4 °F - 46.4 °F 100% 30.21 in 6.2 mi Calm Calm - N/A   Unknown
5:19 AM 46.4 °F - 44.6 °F 93% 30.21 in 4.3 mi Calm Calm - N/A   Mist
5:25 AM 46.4 °F - 46.4 °F 100% 30.21 in 5.0 mi NW 1.2 mph - N/A   Mist
5:38 AM 46.4 °F - 44.6 °F 93% 30.21 in 6.2 mi West 1.2 mph - N/A   Unknown
5:55 AM 44.6 °F - 44.6 °F 100% 30.21 in 6.2 mi NNE 1.2 mph - N/A   Unknown
5:57 AM 44.6 °F - 44.6 °F 100% 30.21 in 4.3 mi NNW 1.2 mph - N/A   Mist
6:00 AM 44 °F - 44 °F 98% 30.23 in 5 mi Calm Calm - -   Mist
6:12 AM 46.4 °F - 44.6 °F 93% 30.21 in 5.0 mi Calm Calm - N/A   Mist
6:18 AM 44.6 °F - 44.6 °F 100% 30.21 in 3.7 mi Calm Calm - N/A   Mist
6:25 AM 44.6 °F - 44.6 °F 100% 30.21 in - Calm Calm - N/A   Mist
6:29 AM 46.4 °F - 44.6 °F 93% 30.21 in 3.1 mi Calm Calm - N/A   Mist
6:33 AM 46.4 °F - 46.4 °F 100% 30.21 in 5.0 mi NW 1.2 mph - N/A   Mist
6:46 AM 46.4 °F - 46.4 °F 100% 30.21 in 6.2 mi WNW 1.2 mph - N/A   Unknown
6:55 AM 48.2 °F - 46.4 °F 93% 30.21 in 6.2 mi NW 1.2 mph - N/A   Unknown
7:00 AM 49 °F - 48 °F 97% 30.23 in 7 mi Calm Calm - -  
7:25 AM 51.8 °F - 51.8 °F 100% 30.21 in 6.2 mi Calm Calm - N/A   Unknown
7:55 AM 55.4 °F - 51.8 °F 88% 30.21 in 6.2 mi NNE 1.2 mph - N/A   Unknown
8:00 AM 56 °F - 51 °F 77% 30.23 in 10 mi NNE 2.2 mph - -   Partly Cloudy
8:25 AM 57.2 °F - 50.0 °F 77% 30.21 in 6.2 mi NNE 2.3 mph - N/A   Partly Cloudy
8:46 AM 57.2 °F - 50.0 °F 77% 30.21 in 6.2 mi NNE 2.3 mph - N/A   Mostly Cloudy
8:55 AM 57.2 °F - 50.0 °F 77% 30.21 in 6.2 mi NNE 3.5 mph - N/A   Overcast
9:00 AM 58 °F - 51 °F 71% 30.24 in 13 mi NNE 4.5 mph - -   Overcast
9:25 AM 59.0 °F - 50.0 °F 72% 30.21 in 6.2 mi ENE 3.5 mph - N/A   Overcast
9:46 AM 59.0 °F - 50.0 °F 72% 30.24 in 6.2 mi NNE 3.5 mph - N/A   Overcast
9:50 AM 59.0 °F - 50.0 °F 72% 30.24 in 6.2 mi NNE 3.5 mph - N/A   Overcast
9:55 AM 59.0 °F - 50.0 °F 72% 30.24 in 6.2 mi NNE 3.5 mph - N/A   Overcast
10:00 AM 59 °F - 50 °F 63% 30.25 in 16 mi NE 4.5 mph - -   Overcast
10:25 AM 59.0 °F - 50.0 °F 72% 30.24 in 6.2 mi NNE 3.5 mph - N/A   Overcast
10:55 AM 60.8 °F - 50.0 °F 68% 30.24 in 6.2 mi NNW 3.5 mph - N/A   Overcast
11:00 AM 60 °F - 50 °F 61% 30.25 in 14 mi NNW 4.5 mph - -   Overcast
11:25 AM 60.8 °F - 50.0 °F 68% 30.24 in 6.2 mi North 4.6 mph - N/A   Overcast
11:55 AM 60.8 °F - 51.8 °F 72% 30.24 in 6.2 mi North 5.8 mph - N/A   Overcast
11:56 AM 62.6 °F - 53.6 °F 72% 30.24 in 6.2 mi North 5.8 mph - N/A   Overcast
12:00 PM 63 °F - 52 °F 59% 30.25 in 18 mi NNE 4.5 mph - -   Overcast
12:03 PM 62.6 °F - 51.8 °F 68% 30.24 in 6.2 mi NNE 4.6 mph - N/A   Overcast
12:25 PM 62.6 °F - 51.8 °F 68% 30.24 in 6.2 mi North 4.6 mph - N/A   Overcast
12:35 PM 62.6 °F - 51.8 °F 68% 30.24 in 6.2 mi North 4.6 mph - N/A   Overcast
12:42 PM 64.4 °F - 51.8 °F 64% 30.21 in 6.2 mi North 3.5 mph - N/A   Overcast
12:46 PM 64.4 °F - 51.8 °F 64% 30.21 in 6.2 mi NNE 3.5 mph - N/A   Overcast
12:55 PM 64.4 °F - 53.6 °F 68% 30.21 in 6.2 mi NNE 4.6 mph - N/A   Overcast
1:00 PM 64 °F - 53 °F 58% 30.24 in 16 mi NE 4.5 mph - -   Overcast
1:06 PM 64.4 °F - 51.8 °F 64% 30.21 in 6.2 mi NNE 4.6 mph - N/A   Overcast
1:13 PM 64.4 °F - 51.8 °F 64% 30.21 in 6.2 mi North 4.6 mph - N/A   Overcast
1:25 PM 64.4 °F - 51.8 °F 64% 30.21 in 6.2 mi North 5.8 mph - N/A   Mostly Cloudy
1:26 PM 64.4 °F - 51.8 °F 64% 30.21 in 6.2 mi North 5.8 mph - N/A   Mostly Cloudy
1:55 PM 64.4 °F - 53.6 °F 68% 30.21 in 6.2 mi NNW 5.8 mph - N/A   Overcast
2:00 PM 64 °F - 52 °F 57% 30.24 in 19 mi NNW 6.7 mph - -   Partly Cloudy
2:11 PM 64.4 °F - 51.8 °F 64% 30.21 in 6.2 mi NNW 5.8 mph - N/A   Overcast
2:17 PM 64.4 °F - 51.8 °F 64% 30.21 in 6.2 mi NW 5.8 mph - N/A   Overcast
2:25 PM 64.4 °F - 53.6 °F 68% 30.21 in 6.2 mi NNW 4.6 mph - N/A   Overcast
2:29 PM 62.6 °F - 53.6 °F 72% 30.21 in 6.2 mi NW 5.8 mph - N/A   Overcast
2:38 PM 64.4 °F - 55.4 °F 73% 30.21 in 6.2 mi WNW 4.6 mph - N/A   Mostly Cloudy
2:55 PM 64.4 °F - 53.6 °F 68% 30.21 in 6.2 mi NNW 4.6 mph - N/A   Overcast
3:00 PM 64 °F - 54 °F 60% 30.23 in 19 mi NW 4.5 mph - -   Overcast
3:05 PM 64.4 °F - 53.6 °F 68% 30.21 in 6.2 mi NW 5.8 mph - N/A   Overcast
3:10 PM 64.4 °F - 53.6 °F 68% 30.21 in 6.2 mi NNW 5.8 mph - N/A   Overcast
3:11 PM 64.4 °F - 53.6 °F 68% 30.21 in 6.2 mi NW 5.8 mph - N/A   Overcast
3:25 PM 64.4 °F - 55.4 °F 73% 30.21 in 6.2 mi NW 6.9 mph - N/A   Overcast
3:29 PM 62.6 °F - 55.4 °F 77% 30.21 in 6.2 mi NW 6.9 mph - N/A   Overcast
3:55 PM 64.4 °F - 55.4 °F 73% 30.21 in 6.2 mi WNW 6.9 mph - N/A   Overcast
4:00 PM 64 °F - 56 °F 67% 30.23 in 22 mi WNW 8.9 mph - -   Overcast
4:04 PM 64.4 °F - 55.4 °F 73% 30.21 in 6.2 mi WNW 8.1 mph - N/A   Overcast
4:09 PM 64.4 °F - 55.4 °F 73% 30.21 in 6.2 mi West 8.1 mph - N/A   Overcast
4:25 PM 64.4 °F - 55.4 °F 73% 30.21 in 6.2 mi WNW 5.8 mph - N/A   Overcast
4:29 PM 64.4 °F - 55.4 °F 73% 30.21 in 6.2 mi West 5.8 mph - N/A   Overcast
4:55 PM 64.4 °F - 55.4 °F 73% 30.21 in 6.2 mi WNW 6.9 mph - N/A   Overcast
5:00 PM 65 °F - 55 °F 61% 30.22 in 22 mi NW 6.7 mph - -   Overcast
5:00 PM 64.4 °F - 55.4 °F 73% 30.21 in 6.2 mi NW 6.9 mph - N/A   Mostly Cloudy
5:12 PM 68.0 °F - 55.4 °F 64% 30.21 in 6.2 mi NW 5.8 mph - N/A   Mostly Cloudy
5:25 PM 68.0 °F - 55.4 °F 64% 30.21 in 6.2 mi NNW 5.8 mph - N/A   Mostly Cloudy
5:55 PM 66.2 °F - 53.6 °F 64% 30.18 in 6.2 mi NW 5.8 mph - N/A   Overcast
6:00 PM 67 °F - 53 °F 52% 30.21 in 28 mi NW 6.7 mph - -   Scattered Clouds
6:25 PM 66.2 °F - 53.6 °F 64% 30.18 in 6.2 mi NNW 4.6 mph - N/A   Unknown
6:55 PM 66.2 °F - 53.6 °F 64% 30.18 in 6.2 mi North 5.8 mph - N/A   Overcast
7:00 PM 66 °F - 53 °F 54% 30.20 in 28 mi NNW 4.5 mph - -   Overcast
7:25 PM 66.2 °F - 53.6 °F 64% 30.18 in 6.2 mi North 4.6 mph - N/A   Mostly Cloudy
7:55 PM 66.2 °F - 53.6 °F 64% 30.18 in 6.2 mi North 5.8 mph - N/A   Overcast
8:00 PM 65 °F - 53 °F 56% 30.20 in 28 mi North 6.7 mph - -   Partly Cloudy
8:25 PM 66.2 °F - 53.6 °F 64% 30.18 in 6.2 mi NNE 3.5 mph - N/A   Mostly Cloudy
8:55 PM 64.4 °F - 53.6 °F 68% 30.18 in 6.2 mi NNE 5.8 mph - N/A   Overcast
9:00 PM 65 °F - 53 °F 55% 30.20 in 28 mi NNE 6.7 mph - -   Overcast
9:25 PM 64.4 °F - 51.8 °F 64% 30.18 in 6.2 mi North 4.6 mph - N/A   Overcast
9:55 PM 62.6 °F - 51.8 °F 68% 30.18 in 6.2 mi North 4.6 mph - N/A   Overcast
10:00 PM 63 °F - 53 °F 60% 30.21 in 28 mi North 6.7 mph - -   Overcast
10:25 PM 60.8 °F - 53.6 °F 77% 30.18 in 6.2 mi North 5.8 mph - N/A   Overcast
10:55 PM 60.8 °F - 53.6 °F 77% 30.21 in 6.2 mi North 5.8 mph - N/A   Mostly Cloudy
11:00 PM 60 °F - 53 °F 72% 30.22 in 28 mi North 6.7 mph - -   Overcast
11:25 PM 59.0 °F - 53.6 °F 82% 30.21 in 6.2 mi NNW 4.6 mph - N/A   Scattered Clouds
11:55 PM 57.2 °F - 53.6 °F 88% 30.21 in 6.2 mi North 5.8 mph - N/A   Scattered Clouds